CZ-4 DEB

Satellite information

Favourite Embed

Satellite Type and Status

DEBRISIN ORBIT

Key statistics

Satellite CZ-4 DEB at a glance.

Uptime

9557

Days in orbit

Revolutions

≈ 14.5

Per day

Orbit

SSO

Sun Synchronous Orbit

Inclination

98.6

Latest

Satellite identification and parameters

Extended collection of information and parameters for CZ-4 DEB.

Object identification

Identified? True

Debris? True

Object name: CZ-4 DEB

International designator: 1999-057NC

Object number (NORAD): 28072

Object ID (CCSDS): 28072

Country: PEOPLES REPUBLIC OF CHINA (PRC)

Current information (Y/N): Y

RCS size: SMALL

Orbital parameters

Period: 99.502 minutes

Inclination: 98.5868 deg

SMA: 7112.932 km

Apoapsis: 797.669 km

Periapsis: 671.925 km

RAAN: 42.1666 deg

Eccentricy: 0.0088391

Argument of periapsis: 231.1585 deg

Mean anomaly: 307.3646 deg

Mean motion: 14.47203992 rev/day

Mean motion (dot): 0.00002465 rev/day2

B* drag term: 0.00065559 1/REarth

Two-line elements (TLE)

Creation date: Dec. 11, 2025, 7:46 a.m.

Reference frame: TEME

Reference center: EARTH

Epoch: Dec. 10, 2025, 10:54 p.m. UTC

TLE line 0: 0 CZ-4 DEB

TLE line 1: 1 28072U 99057NC 25344.95460490 .00002465 00000-0 65559-3 0 9994

TLE line 2: 2 28072 98.5868 42.1666 0088391 231.1585 307.3646 14.47203992192196

Live tracking on map

Real-time ground track for satellite CZ-4 DEB.

In-orbit conjunctions

A list of the most updated potential collisions computed for object CZ-4 DEB.

Target Orbit TCA Probability of collision Miss distance Type
RUBIN 3/SL-8 SSO 2025-07-16 19:21:56 0.001993151 197.0 (m) PAYLOAD
CZ-4 DEB SSO 2025-04-16 01:23:32 0.0001981297 262.0 (m) DEBRIS
CZ-6A DEB LEO 2024-12-30 05:22:21 0.0002536601 743.0 (m) DEBRIS

Associated space launch

The CBERS (China Brazil Earth Resources Satellite) or ZY 1 (Zi Yuan) satellites are designed for global coverage and include cameras to make optical observations and a data collecting system to gather data on the environment. They are unique systems due to the use of on-board sensors which combine features that are especially designed to resolve the broad range of space and time scales involved in the monitoring and preservation of the ecosystem. They are operated jointly by the China Centre for Resources Satellite Data and Application (CRESDA) and the Brazilian INPE (Instituto Nacional de Pesquisas Espaciais, National Institute of Space Research).

CZ-4 DEB was lifted into orbit during the mission ‘Long March 4B | Zi Yuan 1-1’, on board a Long March 4B space rocket.

The launch took place on Oct. 14, 1999, 3:15 a.m. from Launch Complex 7.

For more information about the launch, click the button.

Launch to space Long March 4B | Zi Yuan 1-1
Long March 4B | Zi Yuan 1-1

Agency: N/A

Status: Launch Successful

Launch date: Oct. 14, 1999, 3:15 a.m. UTC

Rocket: Long March 4B

Launch pad: Launch Complex 7

Location: Taiyuan Satellite Launch Center, People's Republic of China

...

Latest news about this satellite

There are no fresh news available about this satellite. Check back as we update our databases every day.


Newsletter sign-up

Weekly statistics, charts and insights to help you stay on top of the space industry.